Date String (YYYY-MM-DD hh:mm:ss) UTC,Instrument flags,Ambient pressure (hPa),Sample flow (lpm),Bypass flow (lpm),Sample temperature (°C),Ambient temperature (°C),ASC tube jacket temperature (°C),LED temperature (°C),Box temperature (°C),Sample RH (%),Span deviation,Mass concentration (μg/m³),Mass concentration (μg/m³),Mass concentration (μg/m³)
DateTimeUTC,F1_M11,P_M11,Q1_M11,Q2_M11,T1_M11,T2_M11,T3_M11,T4_M11,T5_M11,U1_M11,ZSPAN_M11,X0_M11,X2_M11,X1_M11
2022-04-10 08:00:00,,0815.0,4.98,0.00,26.7,25.8,00.0,35.6,28.4,20.0,0000.0,0010.76,0004.30,0002.35
2022-04-10 08:01:00,,0815.0,5.01,0.00,26.7,25.8,00.0,35.6,28.5,20.1,0000.0,0011.42,0004.36,0002.37
2022-04-10 08:02:00,,0815.2,5.00,0.00,26.7,25.8,00.0,35.6,28.5,20.2,0000.0,0011.83,0004.36,0002.41
2022-04-10 08:03:00,,0815.4,4.99,0.00,26.7,25.9,00.0,35.6,28.6,20.4,0000.0,0011.69,0004.32,0002.43
2022-04-10 08:04:00,,0815.3,5.00,0.00,26.7,26.0,00.0,35.7,28.6,20.5,0000.0,0011.79,0004.35,0002.44
2022-04-10 08:05:00,,0815.5,5.00,0.00,26.8,26.0,00.0,35.7,28.6,20.4,0000.0,0011.85,0004.38,0002.47
2022-04-10 08:06:00,,0815.2,5.00,0.00,26.8,26.0,00.0,35.7,28.6,20.3,0000.0,0011.83,0004.43,0002.49
2022-04-10 08:07:00,,0815.3,5.00,0.00,26.8,26.1,00.0,35.7,28.6,20.3,0000.0,0012.05,0004.47,0002.49
2022-04-10 08:08:00,,0815.4,5.00,0.00,26.8,26.1,00.0,35.7,28.6,20.3,0000.0,0012.32,0004.53,0002.46
2022-04-10 08:09:00,,0815.3,5.00,0.00,26.8,26.0,00.0,35.7,28.6,20.3,0000.0,0012.04,0004.50,0002.45
2022-04-10 08:10:00,,0815.3,5.01,0.00,26.8,26.0,00.0,35.7,28.5,20.5,0000.0,0011.90,0004.57,0002.45
2022-04-10 08:11:00,,0815.3,5.00,0.00,26.8,26.0,00.0,35.7,28.5,20.5,0000.0,0012.06,0004.64,0002.47
2022-04-10 08:12:00,,0815.3,4.99,0.00,26.8,26.0,00.0,35.7,28.5,20.5,0000.0,0011.57,0004.62,0002.44
2022-04-10 08:13:00,,0815.2,5.01,0.00,26.8,26.1,00.0,35.7,28.6,20.6,0000.0,0010.98,0004.59,0002.40
2022-04-10 08:14:00,,0815.1,5.00,0.00,26.8,26.1,00.0,35.7,28.6,20.6,0000.0,0011.04,0004.62,0002.37
2022-04-10 08:15:00,,0815.0,5.00,0.00,26.8,26.1,00.0,35.7,28.6,20.6,0000.0,0010.83,0004.58,0002.35
2022-04-10 08:16:00,,0815.0,4.99,0.00,26.8,26.1,00.0,35.7,28.6,20.5,0000.0,0011.11,0004.57,0002.32
2022-04-10 08:17:00,,0814.9,4.99,0.00,26.8,26.1,00.0,35.7,28.6,20.5,0000.0,0011.05,0004.54,0002.28
2022-04-10 08:18:00,,0814.9,5.00,0.00,26.8,26.1,00.0,35.8,28.6,20.5,0000.0,0011.00,0004.55,0002.24
2022-04-10 08:19:00,,0814.8,5.02,0.00,26.8,26.1,00.0,35.8,28.6,20.4,0000.0,0010.90,0004.49,0002.22
2022-04-10 08:20:00,,0814.8,5.00,0.00,26.8,26.0,00.0,35.8,28.6,20.3,0000.0,0010.55,0004.37,0002.19
2022-04-10 08:21:00,,0814.8,4.99,0.00,26.8,26.0,00.0,35.8,28.6,20.4,0000.0,0010.53,0004.27,0002.15
2022-04-10 08:22:00,,0814.9,5.02,0.00,26.8,26.0,00.0,35.8,28.6,20.4,0000.0,0010.23,0004.16,0002.09
2022-04-10 08:23:00,,0814.9,4.99,0.00,26.8,26.0,00.0,35.8,28.6,20.4,0000.0,0010.04,0004.10,0002.05
2022-04-10 08:24:00,,0815.0,5.00,0.00,26.8,25.9,00.0,35.8,28.5,20.5,0000.0,0010.17,0004.07,0002.03
2022-04-10 08:25:00,,0814.9,4.99,0.00,26.8,25.9,00.0,35.8,28.6,20.7,0000.0,0010.23,0004.04,0002.02
2022-04-10 08:26:00,,0814.9,4.99,0.00,26.8,25.9,00.0,35.8,28.6,20.9,0000.0,0010.12,0003.99,0002.01
2022-04-10 08:27:00,,0815.0,5.01,0.00,26.8,25.9,00.0,35.8,28.6,21.2,0000.0,0009.81,0003.94,0001.99
2022-04-10 08:28:00,,0814.9,5.01,0.00,26.8,25.9,00.0,35.8,28.6,22.4,0000.0,0010.52,0003.94,0001.98
2022-04-10 08:29:00,,0815.0,4.99,0.00,26.8,26.0,00.0,35.8,28.6,22.1,0000.0,0010.41,0003.90,0002.00
2022-04-10 08:30:00,,0815.0,4.99,0.00,26.8,26.0,00.0,35.8,28.7,21.2,0000.0,0010.22,0003.83,0001.99
2022-04-10 08:31:00,,0815.0,5.00,0.00,26.8,26.0,00.0,35.8,28.6,20.6,0000.0,0010.00,0003.82,0001.97
2022-04-10 08:32:00,,0815.1,5.00,0.00,26.8,26.0,00.0,35.8,28.6,19.9,0000.0,0009.64,0003.79,0001.92
2022-04-10 08:33:00,,0815.1,4.99,0.00,26.8,26.1,00.0,35.8,28.6,19.3,0000.0,0009.53,0003.78,0001.87
2022-04-10 08:34:00,,0815.1,5.02,0.00,26.8,26.1,00.0,35.8,28.6,19.0,0000.0,0009.43,0003.72,0001.83
2022-04-10 08:35:00,,0815.0,5.00,0.00,26.8,26.1,00.0,35.8,28.6,18.9,0000.0,0009.09,0003.62,0001.78
2022-04-10 08:36:00,,0815.0,4.99,0.00,26.8,26.1,00.0,35.8,28.6,18.6,0000.0,0008.71,0003.49,0001.73
2022-04-10 08:37:00,,0815.1,5.01,0.00,26.8,26.1,00.0,35.8,28.6,18.4,0000.0,0008.52,0003.42,0001.66
2022-04-10 08:38:00,,0814.9,5.00,0.00,26.8,26.1,00.0,35.8,28.6,18.4,0000.0,0008.25,0003.36,0001.60
2022-04-10 08:39:00,,0814.9,4.99,0.00,26.8,26.1,00.0,35.8,28.6,18.5,0000.0,0007.33,0003.28,0001.53
2022-04-10 08:40:00,,0814.8,5.00,0.00,26.8,26.0,00.0,35.8,28.6,18.4,0000.0,0006.90,0003.18,0001.46
2022-04-10 08:41:00,,0814.8,5.00,0.00,26.8,26.0,00.0,35.8,28.6,18.4,0000.0,0006.57,0003.14,0001.43
2022-04-10 08:42:00,,0814.9,5.00,0.00,26.8,26.0,00.0,35.8,28.6,18.3,0000.0,0006.59,0003.13,0001.40
2022-04-10 08:43:00,,0815.0,5.00,0.00,26.8,26.0,00.0,35.8,28.5,18.3,0000.0,0006.34,0003.03,0001.40
2022-04-10 08:44:00,,0814.9,4.99,0.00,26.8,26.0,00.0,35.8,28.6,18.4,0000.0,0006.05,0002.91,0001.40
2022-04-10 08:45:00,,0814.9,5.01,0.00,26.8,26.0,00.0,35.8,28.5,18.4,0000.0,0006.05,0002.94,0001.40
2022-04-10 08:46:00,,0814.9,4.99,0.00,26.8,26.0,00.0,35.8,28.6,18.3,0000.0,0005.92,0002.94,0001.41
2022-04-10 08:47:00,,0814.8,4.99,0.00,26.8,26.0,00.0,35.8,28.6,18.3,0000.0,0006.00,0003.01,0001.43
2022-04-10 08:48:00,,0814.8,5.02,0.00,26.8,26.0,00.0,35.8,28.6,18.3,0000.0,0006.17,0003.08,0001.46
2022-04-10 08:49:00,,0814.9,5.01,0.00,26.8,26.0,00.0,35.8,28.6,18.3,0000.0,0006.31,0003.13,0001.48
2022-04-10 08:50:00,,0814.9,5.00,0.00,26.8,26.0,00.0,35.8,28.6,18.3,0000.0,0006.36,0003.17,0001.51
2022-04-10 08:51:00,,0814.9,5.00,0.00,26.7,26.0,00.0,35.8,28.5,18.3,0000.0,0006.45,0003.18,0001.52
2022-04-10 08:52:00,,0814.9,5.00,0.00,26.7,25.9,00.0,35.8,28.5,18.3,0000.0,0006.60,0003.21,0001.54
2022-04-10 08:53:00,,0814.9,4.99,0.00,26.7,25.9,00.0,35.7,28.5,18.3,0000.0,0006.49,0003.20,0001.56
2022-04-10 08:54:00,,0814.8,4.99,0.00,26.7,25.9,00.0,35.7,28.5,18.4,0000.0,0006.66,0003.24,0001.59
2022-04-10 08:55:00,,0814.9,4.99,0.00,26.7,25.9,00.0,35.7,28.5,18.4,0000.0,0006.92,0003.29,0001.61
2022-04-10 08:56:00,,0814.9,5.00,0.00,26.7,25.9,00.0,35.7,28.5,18.4,0000.0,0006.90,0003.28,0001.62
2022-04-10 08:57:00,,0814.8,5.00,0.00,26.7,25.9,00.0,35.7,28.4,18.3,0000.0,0006.76,0003.27,0001.64
2022-04-10 08:58:00,,0814.9,5.01,0.00,26.7,25.8,00.0,35.7,28.4,18.3,0000.0,0007.06,0003.33,0001.66
2022-04-10 08:59:00,,0814.8,5.01,0.00,26.7,25.8,00.0,35.7,28.4,18.3,0000.0,0007.30,0003.35,0001.67
